User: anonymous   Login
Location: Walnut Point State Park
(39.6958°N, 88.0345°W)
Time: 11:42:51
(UTC-06:00)
Language:

ATLAS 3B R/B - Orbit

View from above orbital plane
View from above orbital plane
View from above satellite
View from above satellite

Ground track
Ground track

The orbit data is extracted from the following two-line orbital elements,

1 28538U 05004B   14314.75245632 0.00000000  00000-0  00000-0 0    05
2 28538  63.8180 170.6721 0207000 239.0071 120.9929 13.43037703    02
Epoch (UTC): 10 November 2014 18:03:32
Eccentricity: 0.0207000
inclination: 63.8180°
perigee height: 943 km
apogee height: 1253 km
right ascension of ascending node: 170.6721°
argument of perigee: 239.0071°
revolutions per day: 13.43037703
mean anomaly at epoch: 120.9929°
orbit number at epoch: 0

The dashed part of the orbit path shows where the satellite is in the earth's shadow,  

DLR